Location: Feigenhofen
(48.4939°N, 10.7793°E)
Time: 05:04:10
(UTC+00:00)

MOS 1 Rocket - Pass Details

Date: 26 May 2022
Orbit: 615 x 828 km, 97.5° (Epoch: 24 June)

Event Time Altitude Azimuth Distance (km) Brightness Sun altitude
Exits shadow 02:23:23 11° 220° (SW) 1,905 4.9 -8.6°
Maximum altitude 02:26:26 21° 268° (W) 1,385 4.5 -8.2°
Drops below altitude 10° 02:29:45 10° 319° (NW) 1,996 5.7 -7.8°
Sets 02:32:25 0° 335° (NNW) 2,925 6.8 -7.5°
